Tracking 35331 objects as of 14-Sep-2026
HD Live streaming from Space Station
objects crossing your sky now

STARLINK-38063

Track STARLINK-38063 now!
10-day predictions
STARLINK-38063 is classified as:


NORAD ID: 69979
Int'l Code: 2026-159E
Launch date: July 11, 2026
Source: United States (US)
Launch site: AIR FORCE WESTERN TEST RANGE (AFWTR)
Your satellite tracking list
Your tracking list is empty




NASA's NSSDC Master Catalog

Two Line Element Set (TLE):
1 69979U 26159E   26257.58335648 -.02356751  00000-0 -35721-1 0  9997
2 69979  97.2842  99.3545 0001893  90.4333 194.1625 15.58123855  5749
Source of the keplerian elements: AFSPC